{"data":{"norad_id":39473,"intl_designator":"2013-072M","name":"TACSAT 6","alt_names":[],"object_type":"PAYLOAD","status":"ACTIVE","operator":null,"country":"US","launch_date":"2013-12-06","launch_site_code":"AFWTR","launch_vehicle":null,"mission":null,"orbit_class":"UNKNOWN","rcs_meters":null,"size_class":null,"mass_kg":null,"dimensions":null,"purposes":[],"wikipedia_slug":null,"has_3d_model":false,"image_url":null,"decayed_at":null,"tle_current":{"epoch":"2026-05-24T22:56:46.650336Z","epoch_age_seconds":78873,"freshness":"FRESH","line1":"1 39473U 13072M   26144.95609549  .00085322  00000+0  96507-3 0  9992","line2":"2 39473 120.4645  39.3910 0072407  30.3538 330.1720 15.58604552115731","mean_motion":15.58604552,"eccentricity":0.0072407,"inclination_deg":120.4645,"raan_deg":39.391,"arg_perigee_deg":30.3538,"mean_anomaly_deg":330.172,"bstar":0.00096507,"rev_number":11573,"period_min":92.390337122537,"perigee_km":342.67651887542,"apogee_km":440.71316168727,"semimajor_km":6769.8318402813,"source":"CELESTRAK","updated_at":"2026-05-25T13:37:55.406331Z"}}}